Back to catalog

STARLINK-34591

AliveCommunicationsVLEO
NORAD 64734·PAYLOAD·🇺🇸 United States

Launched Jul 2, 2025 from Cape Canaveral Space Force Station

Loading…

Next Passes (next 24 hours)

TLE

FreshSource: CelesTrak SupGP

Epoch: Sep 14, 2026, 14:02 UTC

1 64734C 25144L   26257.58520833 -.00096447  00000+0 -28499-2 0  2578
2 64734  53.1599  21.5130 0001262  88.7677 234.5670 15.34434869    19

Track STARLINK-34591 in real time with AllMySat

Download on the App Store